Regional Weather Roundup
Issued by NWS

Home | Current Version | Previous Version | Graphics & Text | Print | Product List | Glossary Off
Versions: 1 2 3 4 5 6 7 8 9 10 11 12 13 14 15 16 17 18 19 20 21 22 23 24 25 26 27 28 29 30 31 32 33 34 35 36 37 38 39 40 41 42 43 44 45 46 47 48 49 50

000
ASUS43 KMKX 191711
RWRWI

WISCONSIN REGIONAL WEATHER ROUNDUP
NATIONAL WEATHER SERVICE MILWAUKEE/SULLIVAN WI
1200 PM CDT TUE SEP 19 2017

NOTE: "FAIR" INDICATES FEW OR NO CLOUDS BELOW 12,000 FEET WITH NO
SIGNIFICANT WEATHER AND/OR OBSTRUCTIONS TO VISIBILITY.

WIZ001-002-006>008-014>016-023>028-191800-
NORTHWEST WISCONSIN

CITY           SKY/WX    TMP DP  RH WIND       PRES   REMARKS
SUPERIOR ARPT  PTSUNNY   65  58  79 NE9       29.93F
ASHLAND        SUNNY     71  57  61 S3        29.96F
HAYWARD        SUNNY     69  56  62 SE10      29.95F
SIREN          MOSUNNY   69  59  71 SE9       29.92F
CUMBERLAND     MOSUNNY   68  59  73 SE9       29.94F
RICE LAKE      SUNNY     70  58  65 E9        29.95F
CHETEK         SUNNY     70  60  71 E9G16     29.95S
LADYSMITH      SUNNY     70  56  62 SE9       29.98F
EAU CLAIRE     SUNNY     71  60  68 SE7       29.93F
MENOMONIE      SUNNY     71  61  71 SE12      29.93S
NEW RICHMOND   MOSUNNY   72  60  67 SE13      29.92S
OSCEOLA        PTSUNNY   72  61  69 SE13      29.93F
$$

WIZ003>005-009-010-017-018-191800-
NORTH CENTRAL WISCONSIN

CITY           SKY/WX    TMP DP  RH WIND       PRES   REMARKS
MANITOWISH WTR SUNNY     68  54  60 SE10      30.00F
ARBOR VITAE    SUNNY     72  58  60 S10       30.00F
WOODRUFF       SUNNY     72  58  60 S10       30.00F
RHINELANDER    SUNNY     70  58  65 SE9       30.01F
EAGLE RIVER    SUNNY     68  53  59 SE8       30.01F
LAND O LAKES   SUNNY     69  54  57 S7        30.02F
PHILLIPS       SUNNY     69  57  67 S7        29.98F
TOMAHAWK         N/A     70  54  56 SE3       30.00F
MEDFORD        SUNNY     69  56  63 SE8       29.98F
MERRILL          N/A     70  57  64 SE7       30.00F
$$

WIZ029-030-035-036-043>047-191800-
CENTRAL WISCONSIN

CITY           SKY/WX    TMP DP  RH WIND       PRES   REMARKS
WAUSAU         SUNNY     71  57  61 E9        29.98F
MOSINEE        MOSUNNY   72  57  60 E5        30.00F
MARSHFIELD     SUNNY     71  55  56 E8        29.98F
STEVENS POINT  SUNNY     70  54  56 E13       30.00F
WAUPACA        SUNNY     76  58  52 E6        30.00F
WAUTOMA        SUNNY     74  54  49 E7        29.99F
WISC RAPIDS    SUNNY     75  52  44 VRB6      29.99F
CAMP DOUGLAS   SUNNY     73  61  64 E9        29.97F
$$

WIZ011>013-019>022-031-037>040-048>050-191800-
NORTHEAST WISCONSIN

CITY           SKY/WX    TMP DP  RH WIND       PRES   REMARKS
ANTIGO         MOSUNNY   67  58  71 SE5       30.02F
SHAWANO        PTSUNNY   70  62  76 NE6       30.01S
OCONTO         PTSUNNY   69  60  75 E6        30.01F
STURGEON BAY   SUNNY     68  57  68 E10       30.03F
GREEN BAY      CLOUDY    68  64  87 E6        30.01F
MANITOWOC      CLOUDY    66  60  81 E7        30.03S
APPLETON       PTSUNNY   72  57  60 E8        29.99F
CLINTONVILLE   MOSUNNY   72  57  60 E6        30.01S
OSHKOSH        SUNNY     71  62  73 E9        29.99F
$$

WIZ032>034-041-042-053>061-191800-
SOUTHWEST WISCONSIN

CITY           SKY/WX    TMP DP  RH WIND       PRES   REMARKS
LA CROSSE      SUNNY     75  62  64 E8        29.93F
SPARTA         SUNNY     73  61  66 E6        29.96F
VIROQUA        SUNNY     73  64  74 E7        29.97S
BOSCOBEL       SUNNY     77  62  59 E7        29.95F
PRAIRIE DU CHI SUNNY     75  60  58 SE7       29.94F
PLATTEVILLE    SUNNY     74  65  72 E5        29.97S
$$

WIZ056-057-062-063-064-067-068-191800-
SOUTH CENTRAL WISCONSIN

CITY           SKY/WX    TMP DP  RH WIND       PRES   REMARKS
REEDSBURG      SUNNY     73  59  61 E3        29.97F
BARABOO/DELLS  SUNNY     73  57  56 E8        29.98F
LONE ROCK      SUNNY     75  62  64 VRB7      29.97S
MINERAL POINT  SUNNY     77  64  65 SE6       29.97F
MADISON        SUNNY     75  60  59 E8        29.97F
MIDDLETON      SUNNY     74  61  63 E6        29.98F
WATERTOWN      SUNNY     77  55  47 E3        29.97F
MONROE         SUNNY     73  59  60 E7        29.97F
JANESVILLE     MOSUNNY   77  57  50 E7        29.96F
$$

WIZ051-052-058>065-066-070>072-191800-
SOUTHEAST WISCONSIN

CITY           SKY/WX    TMP DP  RH WIND       PRES   REMARKS
MILWAUKEE      CLOUDY    71  67  87 E9        29.98F FOG
WAUKESHA       MOSUNNY   75  61  60 E7        29.99F
MILWAUKEE/TIMM MOSUNNY   72  59  64 E6        29.99F
RACINE         MOSUNNY   76  66  71 NE8       29.99F
BURLINGTON     MOSUNNY   75  65  70 E6        29.97F
KENOSHA        PTSUNNY   76  63  64 E6        29.97F
FOND DU LAC    SUNNY     75  57  53 E7        29.98F
SHEBOYGAN      PTSUNNY   69  62  78 NE3       30.01S
WEST BEND        N/A     72  61  68 E8        29.99F
JUNEAU         SUNNY     73  54  50 E6        29.98F
$$

LSZ147-162-191800-
LAKE SUPERIOR

STATION/POSITION TIME  TEMP    WIND        PRES    WAVE
                       AIR SEA DIR/SP/G            HT/PER
                 (UTC) (F)     (DEG/KT/KT) (MB)    (FT/S)
W MID LAKE BUOY  1650   57 54  100/  8/  8 1015.2F   1/ 4
DEVILS ISLAND    1700   60      60/  5/  6 1014.9F
SAXON HARBOR     1640   65     270/  6/  9 1014.2S
$$

LMZ867-665-643>646-191800-
LAKE MICHIGAN

STATION/POSITION TIME  TEMP    WIND        PRES    WAVE
                       AIR SEA DIR/SP/G            HT/PER
                 (UTC) (F)     (DEG/KT/KT) (MB)    (FT/S)
S GREEN BAY BUOY 1700   67 66  110/  6/  6 1016.2
N MID LAKE BUOY  1650   63 65  110/  8/ 10 1017.8F   1/ 3
NORTHPORT PIER   1640   65     130/  6/  8 1017.3S
KEWAUNEE LAKESHO 1642   64     100/  4/  6 1016.0S
SHEBOYGAN LAKESH 1700   65     100/  5/  6 1015.8
PORT WASHINGTON  1640   69      90/  8/ 10 1016.6F
ATWATER BUOY     1609   67 68   70/  6/ 10 1015.8S
MILWAUKEE LAKESH 1650   67      70/  9/ 10   N/A
S MID LAKE BUOY  1650   65 68   60/  8/ 10 1015.5R   1/ 4
KENOSHA   LAKESH 1700   69      70/  5/  6 1014.9
$$

TC  - TEMPERATURE IN CELSIUS
VSB - VISIBILITY IN STATUTE MILES
WCI - WIND CHILL INDEX
HX  - HEAT INDEX





USA.gov is the U.S. government's official web portal to all federal, state and local government web resources and services.